Time,TemperatureF,DewpointF,PressureIn,WindDirection,WindDirectionDegrees,WindSpeedMPH,WindSpeedGustMPH,Humidity,HourlyPrecipIn,Conditions,Clouds,dailyrainin,SoftwareType,DateUTC
2013-01-31 00:18:00,35.5,31.0,29.45,East,98,10.0,13.0,84,0.03,,,0.00,weatherlink.com 1.10,2013-01-31 05:18:00,
2013-01-31 00:32:00,34.8,30.0,29.46,SSE,160,2.0,14.0,82,0.01,,,0.00,weatherlink.com 1.10,2013-01-31 05:32:00,
2013-01-31 00:48:00,33.6,30.0,29.46,NE,39,3.0,7.0,88,0.00,,,0.00,weatherlink.com 1.10,2013-01-31 05:48:00,
2013-01-31 01:03:00,33.2,30.0,29.46,NNW,344,0.0,12.0,87,0.00,,,0.00,weatherlink.com 1.10,2013-01-31 06:03:00,
2013-01-31 01:18:00,32.7,29.0,29.46,North,353,3.0,12.0,85,0.00,,,0.00,weatherlink.com 1.10,2013-01-31 06:18:00,
2013-01-31 01:33:00,32.4,28.0,29.47,WSW,241,2.0,11.0,84,0.00,,,0.00,weatherlink.com 1.10,2013-01-31 06:33:00,
2013-01-31 01:48:00,32.3,28.0,29.48,ENE,73,6.0,12.0,85,0.00,,,0.00,weatherlink.com 1.10,2013-01-31 06:48:00,
2013-01-31 02:03:00,31.7,26.0,29.49,South,188,3.0,20.0,78,0.00,,,0.00,weatherlink.com 1.10,2013-01-31 07:03:00,
2013-01-31 02:18:00,31.1,25.0,29.50,SSE,167,5.0,12.0,77,0.00,,,0.00,weatherlink.com 1.10,2013-01-31 07:18:00,
2013-01-31 02:33:00,30.2,25.0,29.51,NNE,27,7.0,13.0,80,0.00,,,0.00,weatherlink.com 1.10,2013-01-31 07:33:00,
2013-01-31 02:48:00,29.6,23.0,29.52,NNE,18,4.0,11.0,76,0.00,,,0.00,weatherlink.com 1.10,2013-01-31 07:48:00,
2013-01-31 03:03:00,28.8,23.0,29.52,NW,305,7.0,12.0,79,0.00,,,0.00,weatherlink.com 1.10,2013-01-31 08:03:00,
2013-01-31 03:18:00,27.7,22.0,29.54,SSE,154,5.0,21.0,79,0.00,,,0.00,weatherlink.com 1.10,2013-01-31 08:18:00,
2013-01-31 03:33:00,27.1,22.0,29.54,WSW,258,2.0,15.0,82,0.00,,,0.00,weatherlink.com 1.10,2013-01-31 08:33:00,
2013-01-31 03:48:00,26.6,22.0,29.54,NE,44,10.0,13.0,81,0.00,,,0.00,weatherlink.com 1.10,2013-01-31 08:48:00,
2013-01-31 04:04:00,25.8,22.0,29.55,South,179,7.0,12.0,85,0.00,,,0.00,weatherlink.com 1.10,2013-01-31 09:04:00,
2013-01-31 04:18:00,25.6,22.0,29.55,SSW,194,1.0,12.0,85,0.00,,,0.00,weatherlink.com 1.10,2013-01-31 09:18:00,
2013-01-31 04:33:00,24.9,22.0,29.56,WSW,253,2.0,10.0,87,0.00,,,0.00,weatherlink.com 1.10,2013-01-31 09:33:00,
2013-01-31 04:48:00,24.5,21.0,29.57,North,359,1.0,14.0,86,0.00,,,0.00,weatherlink.com 1.10,2013-01-31 09:48:00,
2013-01-31 05:03:00,24.4,20.0,29.57,WSW,248,2.0,18.0,83,0.00,,,0.00,weatherlink.com 1.10,2013-01-31 10:03:00,
2013-01-31 05:19:00,24.3,20.0,29.57,SSW,206,5.0,14.0,82,0.00,,,0.00,weatherlink.com 1.10,2013-01-31 10:19:00,
2013-01-31 05:34:00,24.2,19.0,29.58,SSE,161,2.0,12.0,80,0.00,,,0.00,weatherlink.com 1.10,2013-01-31 10:34:00,
2013-01-31 05:49:00,23.9,19.0,29.60,SSE,167,0.0,10.0,81,0.00,,,0.00,weatherlink.com 1.10,2013-01-31 10:49:00,
2013-01-31 06:04:00,23.7,19.0,29.60,SSW,192,1.0,9.0,83,0.00,,,0.00,weatherlink.com 1.10,2013-01-31 11:04:00,
2013-01-31 06:19:00,23.6,19.0,29.61,SSW,198,7.0,13.0,82,0.00,,,0.00,weatherlink.com 1.10,2013-01-31 11:19:00,
2013-01-31 06:34:00,23.6,18.0,29.61,NE,49,5.0,8.0,80,0.00,,,0.00,weatherlink.com 1.10,2013-01-31 11:34:00,
2013-01-31 06:49:00,23.6,18.0,29.61,South,191,3.0,10.0,78,0.00,,,0.00,weatherlink.com 1.10,2013-01-31 11:49:00,
2013-01-31 07:04:00,23.5,18.0,29.63,ESE,120,3.0,9.0,79,0.00,,,0.00,weatherlink.com 1.10,2013-01-31 12:04:00,
2013-01-31 07:19:00,23.3,17.0,29.64,NNE,28,1.0,8.0,78,0.00,,,0.00,weatherlink.com 1.10,2013-01-31 12:19:00,
2013-01-31 07:34:00,22.8,17.0,29.65,East,84,3.0,8.0,77,0.00,,,0.00,weatherlink.com 1.10,2013-01-31 12:34:00,
2013-01-31 07:49:00,22.5,16.0,29.65,ESE,103,0.0,5.0,77,0.00,,,0.00,weatherlink.com 1.10,2013-01-31 12:49:00,
2013-01-31 08:04:00,22.6,16.0,29.66,ENE,73,0.0,10.0,76,0.00,,,0.00,weatherlink.com 1.10,2013-01-31 13:04:00,
2013-01-31 08:19:00,22.9,17.0,29.67,West,264,4.0,9.0,77,0.00,,,0.00,weatherlink.com 1.10,2013-01-31 13:19:00,
2013-01-31 08:34:00,23.2,17.0,29.67,SSW,209,1.0,7.0,76,0.00,,,0.00,weatherlink.com 1.10,2013-01-31 13:34:00,
2013-01-31 08:49:00,24.0,17.0,29.68,SSW,212,2.0,11.0,75,0.00,,,0.00,weatherlink.com 1.10,2013-01-31 13:49:00,
2013-01-31 09:04:00,24.9,18.0,29.69,South,191,4.0,6.0,74,0.00,,,0.00,weatherlink.com 1.10,2013-01-31 14:04:00,
2013-01-31 09:19:00,25.4,18.0,29.69,SSE,164,4.0,9.0,72,0.00,,,0.00,weatherlink.com 1.10,2013-01-31 14:19:00,
2013-01-31 09:34:00,25.7,17.0,29.70,South,174,3.0,7.0,70,0.00,,,0.00,weatherlink.com 1.10,2013-01-31 14:34:00,
2013-01-31 09:49:00,26.1,18.0,29.70,South,187,4.0,7.0,70,0.00,,,0.00,weatherlink.com 1.10,2013-01-31 14:49:00,
2013-01-31 10:04:00,26.7,18.0,29.71,SSE,163,1.0,9.0,69,0.00,,,0.00,weatherlink.com 1.10,2013-01-31 15:04:00,
2013-01-31 10:19:00,27.3,18.0,29.72,NNE,17,5.0,11.0,68,0.00,,,0.00,weatherlink.com 1.10,2013-01-31 15:19:00,
2013-01-31 10:34:00,27.9,18.0,29.73,SSW,202,8.0,8.0,66,0.00,,,0.00,weatherlink.com 1.10,2013-01-31 15:34:00,
2013-01-31 10:49:00,28.1,17.0,29.72,WSW,247,3.0,10.0,64,0.00,,,0.00,weatherlink.com 1.10,2013-01-31 15:49:00,
2013-01-31 11:04:00,28.7,19.0,29.72,South,179,5.0,11.0,66,0.00,,,0.00,weatherlink.com 1.10,2013-01-31 16:04:00,
2013-01-31 11:19:00,29.0,16.0,29.71,East,96,3.0,13.0,59,0.00,,,0.00,weatherlink.com 1.10,2013-01-31 16:19:00,
2013-01-31 11:34:00,29.6,16.0,29.71,North,3,5.0,15.0,58,0.00,,,0.00,weatherlink.com 1.10,2013-01-31 16:34:00,
2013-01-31 11:50:00,30.4,15.0,29.72,SSW,205,0.0,14.0,54,0.00,,,0.00,weatherlink.com 1.10,2013-01-31 16:50:00,
2013-01-31 12:04:00,31.0,17.0,29.72,WSW,255,3.0,10.0,57,0.00,,,0.00,weatherlink.com 1.10,2013-01-31 17:04:00,
2013-01-31 12:19:00,30.6,15.0,29.72,SE,135,4.0,17.0,52,0.00,,,0.00,weatherlink.com 1.10,2013-01-31 17:19:00,
2013-01-31 12:34:00,30.1,16.0,29.73,South,188,3.0,24.0,56,0.00,,,0.00,weatherlink.com 1.10,2013-01-31 17:34:00,
2013-01-31 12:49:00,30.5,16.0,29.73,South,171,5.0,21.0,55,0.00,,,0.00,weatherlink.com 1.10,2013-01-31 17:49:00,
2013-01-31 13:05:00,30.8,17.0,29.74,West,264,3.0,17.0,56,0.00,,,0.00,weatherlink.com 1.10,2013-01-31 18:05:00,
2013-01-31 13:20:00,30.3,16.0,29.75,NNW,332,2.0,19.0,55,0.00,,,0.00,weatherlink.com 1.10,2013-01-31 18:20:00,
2013-01-31 13:35:00,30.6,18.0,29.75,South,183,6.0,13.0,59,0.00,,,0.00,weatherlink.com 1.10,2013-01-31 18:35:00,
2013-01-31 13:50:00,30.6,18.0,29.74,SW,214,7.0,17.0,59,0.00,,,0.00,weatherlink.com 1.10,2013-01-31 18:50:00,
2013-01-31 14:05:00,31.2,15.0,29.75,SSE,167,5.0,13.0,52,0.00,,,0.00,weatherlink.com 1.10,2013-01-31 19:05:00,
2013-01-31 14:20:00,31.6,17.0,29.75,South,183,5.0,13.0,56,0.00,,,0.00,weatherlink.com 1.10,2013-01-31 19:20:00,
2013-01-31 14:35:00,31.2,17.0,29.75,SSW,208,9.0,17.0,55,0.01,,,0.01,weatherlink.com 1.10,2013-01-31 19:35:00,
2013-01-31 14:50:00,31.3,16.0,29.76,SSE,148,4.0,19.0,53,0.01,,,0.01,weatherlink.com 1.10,2013-01-31 19:50:00,
2013-01-31 15:05:00,31.8,15.0,29.74,SW,221,9.0,19.0,50,0.01,,,0.01,weatherlink.com 1.10,2013-01-31 20:05:00,
2013-01-31 15:20:00,31.9,16.0,29.74,South,182,9.0,19.0,53,0.00,,,0.01,weatherlink.com 1.10,2013-01-31 20:20:00,
2013-01-31 15:50:00,32.4,16.0,29.76,South,183,5.0,18.0,52,0.00,,,0.01,weatherlink.com 1.10,2013-01-31 20:50:00,
2013-01-31 16:05:00,32.8,16.0,29.77,SSE,163,11.0,21.0,50,0.00,,,0.01,weatherlink.com 1.10,2013-01-31 21:05:00,
2013-01-31 16:20:00,32.4,16.0,29.77,NNW,330,6.0,22.0,52,0.00,,,0.01,weatherlink.com 1.10,2013-01-31 21:20:00,
2013-01-31 16:35:00,32.9,18.0,29.78,South,187,5.0,13.0,54,0.00,,,0.01,weatherlink.com 1.10,2013-01-31 21:35:00,
2013-01-31 16:50:00,33.1,17.0,29.76,SSW,197,8.0,11.0,52,0.00,,,0.01,weatherlink.com 1.10,2013-01-31 21:50:00,
2013-01-31 17:05:00,32.9,16.0,29.76,SW,220,2.0,10.0,51,0.00,,,0.01,weatherlink.com 1.10,2013-01-31 22:05:00,
2013-01-31 17:20:00,31.9,17.0,29.77,South,185,5.0,12.0,55,0.00,,,0.01,weatherlink.com 1.10,2013-01-31 22:20:00,
2013-01-31 17:35:00,31.5,17.0,29.77,ENE,60,2.0,14.0,55,0.00,,,0.01,weatherlink.com 1.10,2013-01-31 22:35:00,
2013-01-31 17:50:00,31.2,17.0,29.77,SSE,161,4.0,14.0,56,0.00,,,0.01,weatherlink.com 1.10,2013-01-31 22:50:00,
2013-01-31 18:05:00,31.1,17.0,29.77,ENE,70,3.0,12.0,56,0.00,,,0.01,weatherlink.com 1.10,2013-01-31 23:05:00,
2013-01-31 18:20:00,31.0,17.0,29.77,North,354,2.0,14.0,57,0.00,,,0.01,weatherlink.com 1.10,2013-01-31 23:20:00,
2013-01-31 18:35:00,30.9,17.0,29.77,WSW,253,3.0,10.0,57,0.00,,,0.01,weatherlink.com 1.10,2013-01-31 23:35:00,
2013-01-31 18:50:00,30.9,18.0,29.78,South,171,4.0,10.0,58,0.00,,,0.01,weatherlink.com 1.10,2013-01-31 23:50:00,
2013-01-31 19:05:00,30.8,18.0,29.79,South,182,6.0,7.0,60,0.00,,,0.01,weatherlink.com 1.10,2013-02-01 00:05:00,
2013-01-31 19:20:00,30.8,18.0,29.78,SE,142,4.0,14.0,59,0.00,,,0.01,weatherlink.com 1.10,2013-02-01 00:20:00,
2013-01-31 19:35:00,31.0,18.0,29.79,North,359,4.0,14.0,59,0.00,,,0.01,weatherlink.com 1.10,2013-02-01 00:35:00,
2013-01-31 19:50:00,30.8,18.0,29.79,East,95,5.0,12.0,60,0.00,,,0.01,weatherlink.com 1.10,2013-02-01 00:50:00,
2013-01-31 20:05:00,30.4,19.0,29.79,SW,228,3.0,9.0,62,0.00,,,0.01,weatherlink.com 1.10,2013-02-01 01:05:00,
2013-01-31 20:20:00,29.8,18.0,29.80,South,182,8.0,12.0,63,0.00,,,0.01,weatherlink.com 1.10,2013-02-01 01:20:00,
2013-01-31 20:36:00,29.8,19.0,29.81,WSW,252,3.0,13.0,64,0.00,,,0.01,weatherlink.com 1.10,2013-02-01 01:36:00,
2013-01-31 20:50:00,29.8,19.0,29.82,West,269,8.0,18.0,65,0.00,,,0.01,weatherlink.com 1.10,2013-02-01 01:50:00,
2013-01-31 21:05:00,29.9,19.0,29.81,SSE,157,3.0,15.0,65,0.00,,,0.01,weatherlink.com 1.10,2013-02-01 02:05:00,
2013-01-31 21:20:00,29.7,19.0,29.81,South,179,4.0,17.0,65,0.00,,,0.01,weatherlink.com 1.10,2013-02-01 02:20:00,
2013-01-31 21:35:00,29.9,19.0,29.82,West,279,1.0,10.0,65,0.00,,,0.01,weatherlink.com 1.10,2013-02-01 02:35:00,
2013-01-31 21:50:00,30.0,19.0,29.82,WNW,293,2.0,16.0,65,0.00,,,0.01,weatherlink.com 1.10,2013-02-01 02:50:00,
2013-01-31 22:05:00,29.9,20.0,29.81,WNW,292,3.0,10.0,66,0.00,,,0.01,weatherlink.com 1.10,2013-02-01 03:05:00,
2013-01-31 22:20:00,29.8,20.0,29.80,North,354,2.0,11.0,67,0.00,,,0.01,weatherlink.com 1.10,2013-02-01 03:20:00,
2013-01-31 22:35:00,29.7,20.0,29.80,West,270,5.0,7.0,68,0.00,,,0.01,weatherlink.com 1.10,2013-02-01 03:35:00,
2013-01-31 22:51:00,29.7,20.0,29.80,South,172,8.0,11.0,68,0.00,,,0.01,weatherlink.com 1.10,2013-02-01 03:51:00,
2013-01-31 23:06:00,29.5,20.0,29.81,WSW,240,5.0,15.0,68,0.00,,,0.01,weatherlink.com 1.10,2013-02-01 04:06:00,
2013-01-31 23:21:00,29.8,20.0,29.80,WNW,294,2.0,16.0,68,0.00,,,0.01,weatherlink.com 1.10,2013-02-01 04:21:00,
2013-01-31 23:35:00,29.7,21.0,29.79,South,191,5.0,12.0,69,0.00,,,0.01,weatherlink.com 1.10,2013-02-01 04:35:00,
2013-01-31 23:50:00,29.8,21.0,29.79,North,354,3.0,10.0,70,0.00,,,0.01,weatherlink.com 1.10,2013-02-01 04:50:00,